#timestamp,LO_Frequency,Hit,StdDev 
1523700015.6,286047000.8,P
1523700035.4,286046998.7,N
1523700055.3,286046998.4,N
1523700075.1,286046998.9,N
1523700095.8,286046999.3,N
1523700115.7,286046999.1,N
1523700135.5,286046997.2,Y
1523700155.4,286046999.2,P
1523700175.2,286046997.3,P
1523700195.0,286046996.8,P
1523700195.9,286046996.8,N
1523700215.8,286046997.2,N
1523700235.6,286046997.8,N
1523700255.5,286046996.7,Y
1523700275.3,286046998.7,P
1523700295.1,286046999.1,N
1523700315.9,286046999.3,N
1523700335.7,286046999.6,N
1523700355.5,286046996.6,Y
1523700375.4,286046999.2,P
1523700395.2,286046999.5,P
1523700415.1,286046999.5,N
1523700416.0,286046999.5,N
1523700435.8,286046999.4,N
1523700455.6,286046999.4,N
1523700475.5,286046997.1,Y
1523700495.3,286046998.9,P
1523700515.1,286047011.9,P
1523700535.9,286046996.5,N
1523700555.7,286046996.7,N
1523700575.6,286046998.0,N
1523700595.4,286046997.5,N
1523700615.2,286046997.8,N
1523700635.1,286046997.1,N
1523700636.0,286046997.1,N
1523700655.8,286046998.0,N
1523700675.6,286046995.4,N
1523700695.5,286046995.3,N
1523700715.3,286046995.6,N
1523700735.2,286046995.8,N
1523700755.9,286046995.6,N
1523700775.7,286046993.3,N
1523700795.6,286046993.6,N
1523700815.4,286046993.4,N
1523700835.2,286046993.4,N
1523700855.1,286046994.5,N
1523700856.0,286046994.5,N
1523700875.8,286046994.6,N
1523700895.7,286046994.7,N
1523700915.5,286046992.1,N
1523700935.3,286046992.9,N
1523700955.2,286046992.0,N
1523700975.0,286046992.6,N
1523700975.9,286046992.6,N
1523700995.7,286046990.2,N
1523701015.6,286046990.1,N
1523701035.4,286046990.3,N
1523701055.3,286046991.0,N
1523701075.1,286046990.6,Y
1523701076.0,286046990.6,P
1523701095.8,286046997.5,N
1523701115.7,286046995.1,N
1523701135.5,286046994.9,N
1523701155.3,286046996.2,N
1523701175.2,286046995.8,N
1523701195.0,286046996.3,N
1523701195.9,286046996.3,N
1523701215.8,286046993.3,Y
1523701235.6,286046998.5,P
1523701255.4,286046998.8,N
1523701275.3,286046999.3,N
1523701295.1,286046999.1,N
1523701315.9,286046999.5,N
1523701335.7,286046999.5,N
1523701355.5,286046996.9,N
1523701375.4,286046996.6,N
1523701395.2,286046997.8,N
1523701415.0,286046998.0,N
1523701415.9,286046998.0,N
1523701435.8,286046995.0,Y
1523701455.6,286046996.5,P
1523701475.5,286046996.5,P
1523701495.3,286046996.6,P
1523701515.1,286046999.5,N
1523701535.9,286046997.3,N
1523701555.7,286046997.1,N
1523701575.6,286046995.3,Y
1523701595.4,286046998.4,P
1523701615.2,286046998.9,N
1523701635.1,286046999.4,N
1523701636.0,286046999.4,N
1523701655.8,286046999.4,N
1523701675.6,286046999.1,N
1523701695.5,286046999.1,N
1523701715.3,286046999.6,N
1523701735.2,286046996.6,Y
1523701755.9,286046999.1,P
1523701775.7,286046999.2,P
1523701795.6,286046996.6,P
1523701815.4,286046996.8,N
1523701835.2,286046997.1,N
1523701855.1,286046996.8,N
1523701856.0,286046996.8,N
1523701875.8,286046997.6,N
1523701895.7,286046995.3,Y
1523701915.5,286046999.0,P
1523701935.3,286046999.4,N
1523701955.2,286046998.9,N
1523701975.0,286046999.1,N
1523701975.9,286046999.1,N
1523701995.8,286046999.3,N
1523702015.6,286046999.2,N
1523702035.4,286046996.6,Y
1523702055.3,286046999.3,P
1523702075.1,286046999.0,P
1523702095.8,286046998.7,P
1523702115.7,286046999.0,Y
1523702135.5,286046999.0,P
1523702155.4,286046998.8,P
1523702175.2,286046999.0,P
1523702195.0,286046999.4,Y
1523702195.9,286046999.4,P
1523702215.8,286047011.9,P
1523702235.6,286046999.6,N
1523702255.5,286046999.6,N
1523702275.3,286046997.0,N
1523702295.1,286046996.6,N
1523702315.9,286046996.9,N
1523702335.7,286046997.0,N
1523702355.5,286046997.7,N
1523702375.4,286046997.7,N
1523702395.2,286046997.6,N
1523702415.1,286046997.7,N
1523702416.0,286046997.7,N
1523702435.8,286046995.4,N
1523702455.6,286046995.0,N
1523702475.5,286046995.9,N
1523702495.3,286046996.2,N
1523702515.2,286046996.3,N
1523702535.9,286046995.9,N
1523702555.7,286046993.4,N
1523702575.6,286046994.2,N
1523702595.4,286046993.9,N
1523702615.2,286046994.1,N
1523702635.1,286046994.6,N
1523702636.0,286046994.6,N
1523702655.8,286046994.7,N
1523702675.7,286046991.9,N
1523702695.5,286046993.1,N
1523702715.3,286046992.9,N
1523702735.2,286046990.6,N
1523702755.0,286046992.6,N
1523702755.9,286046992.6,N
1523702775.8,286046992.7,Y
1523702795.6,286046995.0,P
1523702815.4,286046995.4,P
1523702835.3,286046995.3,P
1523702855.1,286046995.1,Y
1523702875.8,286047000.8,P
1523702895.7,286046998.1,N
1523702915.5,286047000.9,N
1523702935.4,286046998.2,N
1523702955.2,286046998.5,N
1523702975.0,286046998.5,N
1523702975.9,286046998.5,N
1523702995.8,286046998.7,N
1523703015.6,286046998.3,N
1523703035.4,286046999.3,N
1523703055.3,286046999.2,N
1523703075.1,286046999.5,N
1523703095.9,286046996.9,N
1523703115.7,286046999.1,N
1523703135.5,286046997.2,N
1523703155.4,286046997.1,N
1523703175.2,286046998.0,N
1523703195.1,286046995.3,Y
1523703196.0,286046995.3,P
1523703215.8,286046996.7,N
1523703235.6,286046997.0,N
1523703255.5,286046997.0,N
1523703275.3,286046997.5,N
1523703295.1,286046995.0,Y
1523703315.9,286047000.9,P
1523703335.7,286046998.6,N
1523703355.6,286046998.3,N
1523703375.4,286046998.7,N
1523703395.2,286046998.6,N
1523703415.1,286046999.1,N
1523703416.0,286046999.1,N
1523703435.8,286046999.0,N
1523703455.6,286046999.1,N
1523703475.5,286046996.8,Y
1523703495.3,286046998.9,P
1523703515.2,286046998.9,P
1523703535.9,286046999.1,P
1523703555.7,286046999.6,Y
1523703575.6,286046999.0,P
1523703595.4,286046999.4,P
